"2016-01-06 00:00:00",1259931,1.473,200.9,12.25,1.23,7.664,101.2683,2.535,3.712,32.65,0,109.9,13.33,3.30,162.9
"2016-01-06 00:00:30",1259932,1.729,181.3,27.96,1.415,8.7,101.2604,2.515,3.699,33.26,0,109.9,13.33,3.28,143.3
"2016-01-06 00:01:00",1259933,0.833,117.9,8.76,0.358,6.071,101.2508,2.491,3.578,33.78,0,109.9,13.38,3.25,79.9
"2016-01-06 00:01:30",1259934,0.365,143.8,41.22,0.799,6.748,101.2506,2.49,3.667,34.33,0,109.9,13.33,3.25,105.8
"2016-01-06 00:02:00",1259935,1.258,125.6,20.68,1.187,8.21,101.2554,2.502,3.667,33.68,0,109.9,13.33,3.26,87.6
"2016-01-06 00:02:30",1259936,1.751,68.18,15.91,1.343,7.897,101.2512,2.492,3.684,33.46,0,109.9,13.33,3.25,30.2
"2016-01-06 00:03:00",1259937,1.828,147,45.08,1.275,8.01,101.2486,2.485,3.658,34.5,0,109.9,13.33,3.25,109.0
"2016-01-06 00:03:30",1259938,0.968,139.2,26.24,0.513,6.349,101.2526,2.495,3.525,35.57,0,109.9,13.38,3.26,101.2
"2016-01-06 00:04:00",1259939,2.718,82.4,11.58,0.684,6.729,101.2541,2.499,3.553,35.83,0,109.8,13.37,3.26,44.4
"2016-01-06 00:04:30",1259940,4.546,101.1,6.338,1.379,9.61,101.2547,2.501,3.72,37.91,0,109.8,13.33,3.26,63.1
"2016-01-06 00:05:00",1259941,3.602,107.8,8.61,1.245,8.3,101.2552,2.502,3.666,38.88,0,109.8,13.33,3.26,69.8
"2016-01-06 00:05:30",1259942,4.205,102,8.94,1.365,9.86,101.2555,2.503,3.685,38.91,0,109.8,13.32,3.26,64.0
"2016-01-06 00:06:00",1259943,3.386,112.6,6.123,1.392,9.64,101.2555,2.503,3.731,38.85,0,109.8,13.32,3.26,74.6
"2016-01-06 00:06:30",1259944,2.859,101.5,11.15,1.212,8.12,101.2555,2.503,3.642,38.39,0,109.8,13.32,3.26,63.5
"2016-01-06 00:07:00",1259945,2.317,91.7,4.825,0.139,7.008,101.2555,2.503,3.524,38.18,0,109.8,13.37,3.26,53.7
"2016-01-06 00:07:30",1259946,3.427,93.1,7.566,1.213,8.36,101.2555,2.503,3.63,38.72,0,109.8,13.33,3.26,55.1
"2016-01-06 00:08:00",1259947,4.112,95,9.71,1.343,9.31,101.2555,2.503,3.698,39.37,0,109.8,13.33,3.26,57.0
"2016-01-06 00:08:30",1259948,3.495,97.5,9.64,1.342,8.39,101.2555,2.503,3.727,39.13,0,109.8,13.33,3.26,59.5
"2016-01-06 00:09:00",1259949,4.369,114.1,12.34,1.368,10.06,101.2555,2.503,3.739,38.26,0,109.8,13.34,3.26,76.1
"2016-01-06 00:09:30",1259950,3.651,98.7,10.75,1.301,8.32,101.2555,2.503,3.671,39.27,0,109.8,13.34,3.26,60.7
"2016-01-06 00:10:00",1259951,3.578,106,14.8,1.169,8.18,101.2561,2.504,3.619,38.7,0,109.8,13.34,3.27,68.0
"2016-01-06 00:10:30",1259952,3.359,94.3,10.17,1.18,8.08,101.2643,2.525,3.661,38.24,0,109.8,13.34,3.29,56.3
"2016-01-06 00:11:00",1259953,3.179,114.9,11.87,1.348,9.02,101.2827,2.572,3.747,38.46,0,109.8,13.34,3.33,76.9
"2016-01-06 00:11:30",1259954,2.649,127.6,10.01,1.343,8.9,101.2915,2.594,3.808,38.64,0,109.8,13.34,3.36,89.6
"2016-01-06 00:12:00",1259955,2.203,129.9,10.65,1.294,7.926,101.2949,2.603,3.698,38.78,0,109.8,13.34,3.36,91.9
"2016-01-06 00:12:30",1259956,2.814,125.6,10.02,1.415,8.13,101.2986,2.613,3.707,37.52,0,109.8,13.34,3.37,87.6
"2016-01-06 00:13:00",1259957,2.278,136.1,7.696,1.354,8.02,101.3105,2.643,3.787,36.22,0,109.8,13.34,3.40,98.1
"2016-01-06 00:13:30",1259958,2.305,129.8,8.83,1.173,6.984,101.3249,2.68,3.659,35.19,0,109.8,13.34,3.44,91.8
"2016-01-06 00:14:00",1259959,2.962,121.8,8.85,1.372,8.55,101.3363,2.709,3.818,35.15,0,109.8,13.34,3.47,83.8
"2016-01-06 00:14:30",1259960,2.302,106.9,9.52,1.269,7.628,101.3411,2.721,3.693,35.41,0,109.8,13.34,3.48,68.9
"2016-01-06 00:15:00",1259961,2.665,131.6,16.41,1.355,8.97,101.342,2.724,3.871,36.64,0,109.8,13.34,3.49,93.6
"2016-01-06 00:15:30",1259962,2.099,125.3,9.4,0.511,6.287,101.3434,2.727,3.735,35.96,0,109.9,13.34,3.49,87.3
"2016-01-06 00:16:00",1259963,3.317,118.8,7.438,1.375,9.07,101.3457,2.733,3.914,36.74,0,109.8,13.34,3.49,80.8
"2016-01-06 00:16:30",1259964,2.195,102.7,12.06,1.272,8.38,101.348,2.739,3.805,36.5,0,109.8,13.34,3.50,64.7
"2016-01-06 00:17:00",1259965,1.47,107.2,7.555,0.63,6.74,101.3486,2.74,3.767,36.03,0,109.8,13.34,3.50,69.2
"2016-01-06 00:17:30",1259966,2.627,103,6.745,1.361,9.24,101.3497,2.743,3.886,36.36,0,109.8,13.34,3.50,65.0
"2016-01-06 00:18:00",1259967,1.998,111.5,7.775,1.08,7.467,101.3509,2.746,3.822,36.12,0,109.8,13.34,3.51,73.5
"2016-01-06 00:18:30",1259968,2.498,112.6,8.74,1.194,7.295,101.3509,2.746,3.846,35.87,0,109.8,13.34,3.51,74.6
"2016-01-06 00:19:00",1259969,3.22,117.6,8.5,1.207,8.41,101.3512,2.747,3.832,36.14,0,109.8,13.34,3.51,79.6
"2016-01-06 00:19:30",1259970,3.198,113.7,12.46,1.365,8.06,101.3543,2.755,3.842,37.26,0,109.8,13.34,3.52,75.7
"2016-01-06 00:20:00",1259971,2.115,102.6,18.83,1.381,8.23,101.3549,2.756,3.9,37.16,0,109.8,13.34,3.52,64.6
"2016-01-06 00:20:30",1259972,1.779,90.7,13.66,1.314,7.941,101.3566,2.761,3.855,36.46,0,109.8,13.34,3.52,52.7
"2016-01-06 00:21:00",1259973,2.195,97.2,8.57,1.406,8.19,101.3623,2.775,3.879,36.69,0,109.8,13.34,3.54,59.2
"2016-01-06 00:21:30",1259974,2.263,112.4,11.44,1.187,7.56,101.3626,2.776,3.878,37.22,0,109.8,13.34,3.54,74.4
"2016-01-06 00:22:00",1259975,2.264,87.4,12.38,1.282,7.521,101.3855,2.834,3.887,37.23,0,109.8,13.34,3.60,49.4
"2016-01-06 00:22:30",1259976,2.304,80.3,10.13,1.165,7.593,101.3917,2.85,3.864,37.09,0,109.8,13.34,3.61,42.3
"2016-01-06 00:23:00",1259977,1.881,79.55,6.324,1.327,7.872,101.3917,2.85,3.931,36.86,0,109.8,13.34,3.61,41.6
"2016-01-06 00:23:30",1259978,1.919,78.07,8.87,1.339,8.81,101.3917,2.85,3.933,36.76,0,109.8,13.34,3.61,40.1
"2016-01-06 00:24:00",1259979,1.994,85.1,13.3,0.914,7.877,101.392,2.851,3.914,36.44,0,109.8,13.34,3.61,47.1
"2016-01-06 00:24:30",1259980,2.278,86.5,14.02,1.195,8.34,101.3928,2.853,3.947,37.05,0,109.8,13.34,3.62,48.5
"2016-01-06 00:25:00",1259981,3.328,91.7,10.42,1.383,9.17,101.3937,2.855,3.962,37.36,0,109.8,13.34,3.62,53.7
"2016-01-06 00:25:30",1259982,2.119,76.27,10.94,1.223,7.718,101.3917,2.85,3.958,37.54,0,109.8,13.34,3.61,38.3
"2016-01-06 00:26:00",1259983,1.199,107.5,6.619,1.387,7.734,101.3917,2.85,3.904,37.26,0,109.8,13.35,3.61,69.5
"2016-01-06 00:26:30",1259984,1.479,126,9.43,1.326,7.784,101.3917,2.85,3.971,37.16,0,109.8,13.35,3.61,88.0
"2016-01-06 00:27:00",1259985,1.749,128.6,15.28,1.403,8.65,101.394,2.856,3.962,36.41,0,109.8,13.35,3.62,90.6
"2016-01-06 00:27:30",1259986,0.557,148.8,15.47,0.153,6.451,101.3926,2.853,3.853,35.95,0,109.8,13.39,3.61,110.8
"2016-01-06 00:28:00",1259987,1.58,171.8,9.34,1.204,7.771,101.3923,2.852,3.933,36.07,0,109.8,13.35,3.61,133.8
"2016-01-06 00:28:30",1259988,1.388,191.3,10.13,1.256,7.934,101.3917,2.85,4.027,35.7,0,109.8,13.35,3.61,153.3
"2016-01-06 00:29:00",1259989,0.687,160.2,39.13,1.03,7.224,101.3917,2.85,3.994,35.63,0,109.8,13.35,3.61,122.2
"2016-01-06 00:29:30",1259990,1.931,158.1,22.81,1.405,8.07,101.3917,2.85,3.972,35.95,0,109.8,13.35,3.61,120.1
"2016-01-06 00:30:00",1259991,1.136,136.8,32.26,1.242,7.449,101.3875,2.84,3.936,35.91,0,109.8,13.35,3.60,98.8
"2016-01-06 00:30:30",1259992,1.704,110.7,8.91,1.217,7.812,101.377,2.813,4.002,36.06,0,109.8,13.35,3.57,72.7
"2016-01-06 00:31:00",1259993,1.952,108.4,10.5,1.386,9.09,101.3649,2.782,3.965,36.26,0,109.8,13.35,3.54,70.4
"2016-01-06 00:31:30",1259994,0.823,105.1,10.92,0.112,6.642,101.3589,2.767,3.834,36.49,0,109.8,13.4,3.53,67.1
"2016-01-06 00:32:00",1259995,0.76,100.1,6.854,0.205,6.619,101.3592,2.767,3.82,36.94,0,109.8,13.4,3.53,62.1
"2016-01-06 00:32:30",1259996,2.21,129.2,9.49,1.445,8.48,101.3604,2.77,3.972,37.21,0,109.8,13.36,3.53,91.2
"2016-01-06 00:33:00",1259997,2.075,105.8,13.62,1.344,8.57,101.3601,2.77,3.939,37.35,0,109.8,13.36,3.53,67.8
"2016-01-06 00:33:30",1259998,2.558,105.6,13.11,1.344,8.91,101.348,2.739,3.946,37.71,0,109.8,13.36,3.50,67.6
"2016-01-06 00:34:00",1259999,2.252,95.5,7.98,1.317,8.54,101.3364,2.709,3.931,38.06,0,109.8,13.36,3.47,57.5
"2016-01-06 00:34:30",1260000,2.37,85.4,12.71,1.353,8.74,101.3347,2.705,3.869,38.35,0,109.8,13.35,3.47,47.4
"2016-01-06 00:35:00",1260001,1.692,66.86,11.95,1.198,8.54,101.3347,2.705,3.862,38.45,0,109.8,13.36,3.47,28.9
"2016-01-06 00:35:30",1260002,1.188,55.4,4.509,0.18,6.576,101.3387,2.715,3.747,38.25,0,109.8,13.4,3.48,17.4
"2016-01-06 00:36:00",1260003,1.625,55.26,3.666,0.727,6.886,101.3328,2.7,3.743,38,0,109.8,13.37,3.46,17.3
"2016-01-06 00:36:30",1260004,2.329,60.05,7.162,1.219,8.62,101.3224,2.673,3.9,38.13,0,109.8,13.37,3.43,22.0
"2016-01-06 00:37:00",1260005,3.037,58.15,7.402,1.37,9.49,101.3173,2.66,3.849,38.14,0,109.8,13.36,3.42,20.2
"2016-01-06 00:37:30",1260006,2.315,54.05,6.513,1.212,8.14,101.3105,2.643,3.868,38.19,0,109.8,13.36,3.40,16.0
"2016-01-06 00:38:00",1260007,2.708,53.35,7.79,1.347,9.28,101.3079,2.637,3.883,38.36,0,109.8,13.35,3.40,15.3
"2016-01-06 00:38:30",1260008,2.537,51.22,7.227,1.331,9.59,101.3097,2.641,3.903,38.42,0,109.8,13.35,3.40,13.2
"2016-01-06 00:39:00",1260009,1.04,44.98,2.127,0.15,6.686,101.3082,2.637,3.69,38.13,0,109.8,13.4,3.40,7.0
"2016-01-06 00:39:30",1260010,0.631,45.84,4.206,0.08,6.397,101.3085,2.638,3.73,38.09,0,109.8,13.4,3.40,7.8
"2016-01-06 00:40:00",1260011,1.988,42.95,7.597,1.299,9.46,101.3085,2.638,3.847,38.24,0,109.8,13.35,3.40,5.0
"2016-01-06 00:40:30",1260012,1.272,45.73,7.198,1.086,7.856,101.3088,2.639,3.803,38.12,0,109.8,13.35,3.40,7.7
"2016-01-06 00:41:00",1260013,0.888,38.63,4.085,0.288,6.692,101.3097,2.641,3.75,38.06,0,109.8,13.4,3.40,0.6
"2016-01-06 00:41:30",1260014,2.471,46.45,7.121,1.359,8.9,101.3111,2.645,3.812,38.04,0,109.8,13.35,3.41,8.5
"2016-01-06 00:42:00",1260015,2.776,45.99,7.252,1.326,8.88,101.3122,2.648,3.841,38.22,0,109.8,13.36,3.41,8.0
"2016-01-06 00:42:30",1260016,2.794,38.66,8.65,1.441,9.12,101.3094,2.64,3.787,38.66,0,109.8,13.36,3.40,0.7
"2016-01-06 00:43:00",1260017,1.814,32.38,2.831,0.545,7.478,101.3105,2.643,3.675,39.36,0,109.8,13.37,3.40,354.4
"2016-01-06 00:43:30",1260018,2.961,34.67,7.126,1.405,8.66,101.3108,2.644,3.782,39.86,0,109.8,13.37,3.41,356.7
"2016-01-06 00:44:00",1260019,2.855,35.2,6.023,1.332,8.59,101.3102,2.642,3.8,39.91,0,109.8,13.37,3.40,357.2
"2016-01-06 00:44:30",1260020,2.213,31.35,5.908,1.122,8.48,101.314,2.652,3.716,39.59,0,109.8,13.36,3.41,353.4
"2016-01-06 00:45:00",1260021,2.205,30.23,7.385,1.262,8.81,101.3145,2.653,3.818,39.65,0,109.8,13.36,3.41,352.2
"2016-01-06 00:45:30",1260022,2.764,33.87,7.153,1.408,9.77,101.3142,2.653,3.879,39.55,0,109.8,13.37,3.41,355.9
"2016-01-06 00:46:00",1260023,2.652,34,7.859,1.313,9.66,101.314,2.652,3.796,39.22,0,109.8,13.36,3.41,356.0
"2016-01-06 00:46:30",1260024,1.784,35.11,2.947,0.365,7.479,101.3151,2.655,3.689,39.32,0,109.8,13.41,3.42,357.1
"2016-01-06 00:47:00",1260025,3.484,45.13,7.209,1.299,10.09,101.3151,2.655,3.873,39.88,0,109.8,13.36,3.42,7.1
"2016-01-06 00:47:30",1260026,2.429,43.09,6.007,1.201,8.94,101.3137,2.651,3.79,39.62,0,109.8,13.37,3.41,5.1
"2016-01-06 00:48:00",1260027,1.402,38.76,2.763,0.226,7.257,101.3145,2.653,3.708,39.07,0,109.8,13.41,3.41,0.8
"2016-01-06 00:48:30",1260028,2.484,44.88,5.616,1.229,9.27,101.3168,2.659,3.887,39.17,0,109.8,13.37,3.42,6.9
"2016-01-06 00:49:00",1260029,2.619,40.04,8.1,1.375,9.7,101.3208,2.669,3.856,38.98,0,109.8,13.36,3.43,2.0
"2016-01-06 00:49:30",1260030,2.932,45.61,7.995,1.395,9.74,101.3324,2.699,3.867,39.05,0,109.8,13.37,3.46,7.6
"2016-01-06 00:50:00",1260031,1.762,39.82,4.395,0.181,7.462,101.3403,2.719,3.713,38.71,0,109.8,13.41,3.48,1.8
"2016-01-06 00:50:30",1260032,2.855,45.27,8.27,1.386,9.47,101.3511,2.747,3.83,38.54,0,109.8,13.36,3.51,7.3
"2016-01-06 00:51:00",1260033,2.181,44.29,7.955,1.208,8.96,101.3508,2.746,3.829,38.07,0,109.8,13.36,3.51,6.3
"2016-01-06 00:51:30",1260034,1.626,41.41,5.218,0.598,7.505,101.3485,2.74,3.743,37.96,0,109.8,13.37,3.50,3.4
"2016-01-06 00:52:00",1260035,2.447,47.93,8.67,1.246,9.51,101.3513,2.747,3.967,37.84,0,109.8,13.37,3.51,9.9
"2016-01-06 00:52:30",1260036,2.523,46.71,6.604,1.319,10.11,101.3564,2.76,3.947,38.09,0,109.8,13.36,3.52,8.7
"2016-01-06 00:53:00",1260037,2.277,49.75,7.006,1.331,9.43,101.3635,2.778,3.95,38.36,0,109.8,13.36,3.54,11.8
"2016-01-06 00:53:30",1260038,0.998,47.61,8.58,0.246,7.616,101.3745,2.807,3.786,38.05,0,109.8,13.41,3.57,9.6
"2016-01-06 00:54:00",1260039,1.572,37.9,5.932,1.183,8.6,101.3825,2.827,3.901,37.3,0,109.8,13.36,3.59,359.9
"2016-01-06 00:54:30",1260040,1.54,41.54,5.576,1.243,9.17,101.3856,2.835,3.983,36.47,0,109.8,13.36,3.60,3.5
"2016-01-06 00:55:00",1260041,1.014,49.85,6.031,0.779,8.03,101.3859,2.835,3.828,36.28,0,109.8,13.36,3.60,11.8
"2016-01-06 00:55:30",1260042,0.584,48.45,8.95,0.121,7.114,101.3859,2.835,3.863,36.33,0,109.8,13.4,3.60,10.5
"2016-01-06 00:56:00",1260043,1.796,49.94,22.51,1.38,9.78,101.3844,2.832,3.973,36.3,0,109.8,13.36,3.59,11.9
"2016-01-06 00:56:30",1260044,1.364,33.39,24,1.361,9.6,101.3844,2.832,4.027,35.98,0,109.8,13.36,3.59,355.4
"2016-01-06 00:57:00",1260045,1.247,41.07,10.57,1.257,8.9,101.387,2.838,4.001,35.64,0,109.8,13.36,3.60,3.1
"2016-01-06 00:57:30",1260046,0.852,36.37,6.991,1.092,8.56,101.3879,2.841,3.942,35.47,0,109.8,13.37,3.60,358.4
"2016-01-06 00:58:00",1260047,0.266,33.16,6.272,0.117,7.381,101.391,2.849,3.861,35.21,0,109.8,13.4,3.61,355.2
"2016-01-06 00:58:30",1260048,0.708,28.19,8.34,1.166,8.25,101.3918,2.851,3.97,35.18,0,109.8,13.37,3.61,350.2
"2016-01-06 00:59:00",1260049,1.379,25.16,15.97,1.4,8.84,101.4,2.872,3.972,35.08,0,109.9,13.37,3.63,347.2
"2016-01-06 00:59:30",1260050,0.333,21.71,12.52,0.917,7.98,101.4026,2.878,3.973,35,0,109.8,13.37,3.64,343.7
"2016-01-06 01:00:00",1260051,0.367,25.58,7.635,0.212,6.85,101.4026,2.878,3.893,34.83,0,109.8,13.41,3.64,347.6
"2016-01-06 01:00:30",1260052,0.348,10.46,21.6,0.182,6.729,101.4052,2.885,3.891,34.79,0,109.8,13.42,3.65,332.5
"2016-01-06 01:01:00",1260053,1.058,347,15.77,1.149,7.898,101.4057,2.886,3.928,34.79,0,109.8,13.37,3.65,309.0
"2016-01-06 01:01:30",1260054,1.411,28.42,16.61,1.392,10.08,101.404,2.882,4.121,34.98,0,109.8,13.37,3.64,350.4
"2016-01-06 01:02:00",1260055,1.297,25.71,13.26,1.376,9.54,101.4029,2.879,4.054,34.85,0,109.8,13.37,3.64,347.7
"2016-01-06 01:02:30",1260056,0.39,27.77,7.632,0.128,7.182,101.401,2.874,3.925,34.58,0,109.8,13.42,3.64,349.8
"2016-01-06 01:03:00",1260057,0.336,25.25,5.709,0.121,6.961,101.3939,2.856,3.904,34.44,0,109.8,13.42,3.62,347.2
"2016-01-06 01:03:30",1260058,0.904,22.91,15.92,1.215,8.63,101.3927,2.853,4.013,34.5,0,109.8,13.37,3.61,344.9
"2016-01-06 01:04:00",1260059,1.171,28.8,6.74,1.234,8.35,101.3916,2.85,3.988,34.51,0,109.8,13.37,3.61,350.8
"2016-01-06 01:04:30",1260060,0.358,25.21,3.402,0.098,6.817,101.3922,2.852,3.897,34.58,0,109.8,13.42,3.61,347.2
"2016-01-06 01:05:00",1260061,0.202,29.08,4.371,0.105,6.923,101.3922,2.852,3.889,34.71,0,109.8,13.42,3.61,351.1
"2016-01-06 01:05:30",1260062,0.249,32.77,5.378,0.1,6.951,101.3922,2.852,3.88,34.81,0,109.8,13.42,3.61,354.8
"2016-01-06 01:06:00",1260063,0.724,29.51,9.35,1.03,7.875,101.3922,2.852,3.967,34.94,0,109.8,13.38,3.61,351.5
"2016-01-06 01:06:30",1260064,1.851,26.12,12.43,1.255,10.52,101.3913,2.849,4.106,35.26,0,109.8,13.38,3.61,348.1
"2016-01-06 01:07:00",1260065,1.169,44.01,6.571,1.248,9.32,101.3843,2.831,3.994,35.2,0,109.8,13.38,3.59,6.0
"2016-01-06 01:07:30",1260066,0.365,43.55,3.74,0.082,7.247,101.3741,2.805,3.861,35.32,0,109.8,13.42,3.57,5.5
"2016-01-06 01:08:00",1260067,0.412,50.74,5.72,0.035,7.298,101.3596,2.769,3.856,35.85,0,109.8,13.42,3.53,12.7
"2016-01-06 01:08:30",1260068,1.618,56.01,8.23,1.362,9.97,101.3582,2.765,4.01,36.57,0,109.8,13.38,3.53,18.0
"2016-01-06 01:09:00",1260069,0.808,57.17,12.73,1.092,8.32,101.3582,2.765,3.96,36.67,0,109.8,13.38,3.53,19.2
"2016-01-06 01:09:30",1260070,0.416,60.55,3.326,0.151,7.111,101.3582,2.765,3.821,36.42,0,109.8,13.42,3.53,22.5
"2016-01-06 01:10:00",1260071,0.482,62.68,7.298,0.054,7.033,101.3531,2.752,3.822,36.4,0,109.8,13.42,3.51,24.7
"2016-01-06 01:10:30",1260072,1.223,61.55,11.37,1.282,8.92,101.339,2.716,3.902,36.49,0,109.8,13.37,3.48,23.5
"2016-01-06 01:11:00",1260073,2.147,73.65,8.31,1.289,10.76,101.326,2.683,3.991,36.5,0,109.8,13.37,3.44,35.7
"2016-01-06 01:11:30",1260074,1.558,66.6,9.29,1.356,9.3,101.3243,2.678,3.9,36.44,0,109.8,13.37,3.44,28.6
"2016-01-06 01:12:00",1260075,0.304,62.81,4.849,0.074,7.249,101.3243,2.678,3.769,36.47,0,109.8,13.42,3.44,24.8
"2016-01-06 01:12:30",1260076,0.336,65.54,3.893,0.071,7.107,101.3243,2.678,3.769,36.54,0,109.8,13.41,3.44,27.5
"2016-01-06 01:13:00",1260077,0.593,64.43,4.727,0.168,7.183,101.3234,2.676,3.789,36.75,0,109.8,13.42,3.44,26.4
"2016-01-06 01:13:30",1260078,2.202,65.08,7.808,1.363,9.94,101.3155,2.656,3.891,37.01,0,109.8,13.37,3.42,27.1
"2016-01-06 01:14:00",1260079,0.988,53.39,8.59,0.826,7.877,101.3073,2.635,3.815,37.03,0,109.8,13.38,3.40,15.4
"2016-01-06 01:14:30",1260080,0.734,52.15,4.31,0.262,7.051,101.2954,2.605,3.753,37.23,0,109.8,13.37,3.37,14.2
"2016-01-06 01:15:00",1260081,1.99,60.01,7.28,1.449,10.08,101.2903,2.592,3.88,37.45,0,109.8,13.37,3.35,22.0
"2016-01-06 01:15:30",1260082,1.478,61.72,7.424,1.309,8.88,101.2903,2.592,3.834,37.62,0,109.8,13.38,3.35,23.7
"2016-01-06 01:16:00",1260083,2.041,67.27,8.81,1.36,9.75,101.2903,2.592,3.852,37.88,0,109.8,13.38,3.35,29.3
"2016-01-06 01:16:30",1260084,0.387,56.1,3.294,0.267,7.085,101.2903,2.592,3.682,37.77,0,109.7,13.38,3.35,18.1
"2016-01-06 01:17:00",1260085,0.285,56.72,4.645,0.049,7.173,101.2903,2.592,3.673,37.54,0,109.8,13.42,3.35,18.7
"2016-01-06 01:17:30",1260086,0.37,66.39,3.201,0.078,7.22,101.29,2.591,3.671,37.37,0,109.8,13.42,3.35,28.4
"2016-01-06 01:18:00",1260087,0.932,73.03,6.96,1.209,8.93,101.2861,2.581,3.745,37.41,0,109.8,13.38,3.34,35.0
"2016-01-06 01:18:30",1260088,1.007,58.43,8.18,1.246,8.99,101.2759,2.555,3.739,37.17,0,109.8,13.38,3.32,20.4
"2016-01-06 01:19:00",1260089,-0.019,48.18,5.271,0.062,6.991,101.2728,2.547,3.64,36.73,0,109.8,13.43,3.31,10.2
"2016-01-06 01:19:30",1260090,0.665,37.21,32.34,1.218,8.31,101.2632,2.522,3.735,36.53,0,109.8,13.38,3.28,359.2
"2016-01-06 01:20:00",1260091,0.535,73.35,33.47,1.258,9.83,101.2586,2.511,3.799,36.3,0,109.7,13.38,3.27,35.3
"2016-01-06 01:20:30",1260092,-0.263,128,24.6,0.073,7.183,101.2564,2.505,3.628,35.83,0,109.8,13.43,3.27,90.0
"2016-01-06 01:21:00",1260093,0.223,248,48.46,1.095,8.15,101.2564,2.505,3.704,35.72,0,109.7,13.38,3.27,210.0
"2016-01-06 01:21:30",1260094,0.604,207.3,38.11,1.285,8.19,101.2564,2.505,3.724,35.59,0,109.8,13.38,3.27,169.3
"2016-01-06 01:22:00",1260095,-0.302,108.4,66.53,0.247,7.105,101.2564,2.505,3.635,35.4,0,109.7,13.43,3.27,70.4
"2016-01-06 01:22:30",1260096,-0.33,125.3,20.08,0.024,6.953,101.2566,2.506,3.579,35.29,0,109.7,13.43,3.27,87.3
"2016-01-06 01:23:00",1260097,-0.276,99.5,36.63,0.079,6.795,101.2555,2.503,3.572,35.79,0,109.7,13.43,3.26,61.5
"2016-01-06 01:23:30",1260098,-0.254,38.82,38.72,0.065,6.646,101.2578,2.509,3.572,36.16,0,109.7,13.43,3.27,0.8
"2016-01-06 01:24:00",1260099,-0.018,62.01,10.95,0.139,6.997,101.2598,2.514,3.577,36.22,0,109.7,13.43,3.27,24.0
"2016-01-06 01:24:30",1260100,0.152,76.42,7.255,0.024,7.606,101.2581,2.509,3.559,36.72,0,109.7,13.43,3.27,38.4
"2016-01-06 01:25:00",1260101,1.359,86.3,11.14,1.391,10.08,101.2443,2.474,3.714,37.79,0,109.7,13.4,3.23,48.3
"2016-01-06 01:25:30",1260102,1.26,92.5,10.9,1.343,9.72,101.2327,2.445,3.655,38.3,0,109.7,13.4,3.21,54.5
"2016-01-06 01:26:00",1260103,1.064,99.3,6.529,1.284,8.96,101.231,2.44,3.678,38.9,0,109.7,13.39,3.20,61.3
"2016-01-06 01:26:30",1260104,0.79,107.2,6.537,1.256,8.81,101.231,2.44,3.618,39.15,0,109.7,13.39,3.20,69.2
"2016-01-06 01:27:00",1260105,1.02,87.9,12.16,1.311,9.58,101.2342,2.448,3.63,39.13,0,109.7,13.38,3.21,49.9
"2016-01-06 01:27:30",1260106,0.33,75.32,76.28,1.148,7.988,101.2347,2.45,3.612,39.05,0,109.7,13.38,3.21,37.3
"2016-01-06 01:28:00",1260107,-0.105,228.5,14.69,0.141,6.169,101.2248,2.424,3.5,38.93,0,109.7,13.43,3.18,190.5
"2016-01-06 01:28:30",1260108,0.394,274.1,11.14,0.15,6.674,101.2087,2.383,3.491,38.53,0,109.7,13.42,3.14,236.1
"2016-01-06 01:29:00",1260109,0.29,267.1,8.23,0.11,6.843,101.2033,2.37,3.48,38.2,0,109.7,13.43,3.13,229.1
"2016-01-06 01:29:30",1260110,0.689,269.9,2.498,0.15,7.477,101.2028,2.368,3.463,37.56,0,109.7,13.43,3.13,231.9
"2016-01-06 01:30:00",1260111,2.036,260.8,5.875,1.381,9.02,101.2068,2.378,3.566,36.73,0,109.7,13.38,3.14,222.8
"2016-01-06 01:30:30",1260112,2.175,276,8.54,1.275,9.53,101.1992,2.359,3.583,35.45,0,109.7,13.39,3.12,238.0
"2016-01-06 01:31:00",1260113,0.851,263.4,13.25,0.7,8.22,101.2045,2.373,3.418,35.4,0,109.7,13.39,3.13,225.4
"2016-01-06 01:31:30",1260114,2.672,262.8,9.98,1.371,10.44,101.2,2.361,3.637,35.66,0,109.7,13.38,3.12,224.8
"2016-01-06 01:32:00",1260115,2.508,274.5,14.49,1.362,10.01,101.1938,2.345,3.621,35.1,0,109.7,13.39,3.11,236.5
"2016-01-06 01:32:30",1260116,0.795,274.3,10.8,0.549,7.312,101.191,2.338,3.405,35.13,0,109.7,13.4,3.10,236.3
"2016-01-06 01:33:00",1260117,0.402,280.8,7.861,0.147,6.926,101.1924,2.342,3.385,35.51,0,109.7,13.44,3.10,242.8
"2016-01-06 01:33:30",1260118,0.383,272.5,14.19,0.11,6.989,101.2074,2.38,3.395,36.46,0,109.7,13.43,3.14,234.5
"2016-01-06 01:34:00",1260119,1.018,260.9,6.722,1.008,7.85,101.2043,2.372,3.39,36.6,0,109.7,13.4,3.13,222.9
"2016-01-06 01:34:30",1260120,2.312,275.3,9.75,1.358,10.05,101.1998,2.361,3.587,36.77,0,109.7,13.4,3.12,237.3
"2016-01-06 01:35:00",1260121,1.482,260.8,10.27,0.881,8.4,101.2024,2.367,3.381,36.02,0,109.7,13.4,3.13,222.8
"2016-01-06 01:35:30",1260122,1.932,248.5,9.31,1.246,9.02,101.197,2.353,3.552,36.05,0,109.7,13.4,3.11,210.5
"2016-01-06 01:36:00",1260123,2.584,263.8,9.66,1.366,10.43,101.1958,2.35,3.613,36.3,0,109.7,13.39,3.11,225.8
"2016-01-06 01:36:30",1260124,2.148,261.8,10.07,1.361,9.36,101.1978,2.356,3.498,36.62,0,109.7,13.4,3.12,223.8
"2016-01-06 01:37:00",1260125,0.765,254.5,13.98,0.154,6.836,101.204,2.371,3.375,37.36,0,109.7,13.44,3.13,216.5
"2016-01-06 01:37:30",1260126,0.476,221.4,5.375,0.081,6.582,101.2137,2.396,3.379,38.42,0,109.7,13.44,3.16,183.4
"2016-01-06 01:38:00",1260127,0.282,221.5,4.432,0.059,6.884,101.2148,2.399,3.412,38.45,0,109.7,13.44,3.16,183.5
"2016-01-06 01:38:30",1260128,0.937,220.7,8.25,1.253,8.61,101.2148,2.399,3.545,38.46,0,109.7,13.4,3.16,182.7
"2016-01-06 01:39:00",1260129,0.865,232.1,8.76,1.229,8.63,101.2157,2.401,3.489,38.27,0,109.7,13.4,3.16,194.1
"2016-01-06 01:39:30",1260130,0.316,230.5,6.452,0.216,6.897,101.2165,2.403,3.419,38.09,0,109.7,13.44,3.16,192.5
"2016-01-06 01:40:00",1260131,1.736,242.1,10.14,1.361,9.07,101.2145,2.398,3.621,38.02,0,109.7,13.4,3.16,204.1
"2016-01-06 01:40:30",1260132,1.916,246.2,12.27,1.46,9.54,101.2179,2.407,3.56,37.25,0,109.7,13.4,3.17,208.2
"2016-01-06 01:41:00",1260133,1.389,247.1,7.69,1.299,8.75,101.2162,2.403,3.586,36.77,0,109.7,13.39,3.16,209.1
"2016-01-06 01:41:30",1260134,0.914,257.5,7.699,1.198,8.41,101.2225,2.418,3.503,36.56,0,109.7,13.4,3.18,219.5
"2016-01-06 01:42:00",1260135,0.106,254,8.81,0.068,7.135,101.2332,2.446,3.439,36.57,0,109.7,13.44,3.21,216.0
"2016-01-06 01:42:30",1260136,0.594,249.5,13.1,0.211,7.305,101.2333,2.446,3.515,36.45,0,109.7,13.44,3.21,211.5
"2016-01-06 01:43:00",1260137,2.596,267.4,8.88,1.278,10.01,101.2327,2.444,3.599,36.35,0,109.7,13.4,3.21,229.4
"2016-01-06 01:43:30",1260138,1.727,256.7,7.911,0.943,8.6,101.2361,2.453,3.563,36.23,0,109.7,13.4,3.21,218.7
"2016-01-06 01:44:00",1260139,1.815,272.5,10.36,1.133,8.66,101.2381,2.458,3.565,35.87,0,109.7,13.4,3.22,234.5
"2016-01-06 01:44:30",1260140,1.41,271.6,10.95,1.246,9.11,101.2429,2.471,3.643,35.92,0,109.7,13.38,3.23,233.6
"2016-01-06 01:45:00",1260141,1.064,269.2,16.45,1.223,8.15,101.2522,2.494,3.524,36.04,0,109.7,13.38,3.26,231.2
"2016-01-06 01:45:30",1260142,1.731,257.6,10.21,1.311,9.48,101.2525,2.495,3.677,36.68,0,109.7,13.38,3.26,219.6
"2016-01-06 01:46:00",1260143,1.458,261.4,10.38,1.046,8.29,101.2542,2.499,3.585,36.45,0,109.7,13.39,3.26,223.4
"2016-01-06 01:46:30",1260144,0.82,254,6.005,0.084,7.102,101.2562,2.505,3.507,35.96,0,109.7,13.43,3.27,216.0
"2016-01-06 01:47:00",1260145,1.668,261.3,9.88,1.295,9.22,101.2548,2.501,3.708,36.28,0,109.7,13.38,3.26,223.3
"2016-01-06 01:47:30",1260146,1.605,263.3,7.794,1.323,9.61,101.2559,2.504,3.603,36.27,0,109.7,13.39,3.26,225.3
"2016-01-06 01:48:00",1260147,0.602,264.4,5.352,0.045,7.814,101.2568,2.506,3.509,36.06,0,109.7,13.43,3.27,226.4
"2016-01-06 01:48:30",1260148,1.491,273.3,9.89,1.222,9.01,101.2559,2.504,3.684,36.09,0,109.7,13.39,3.26,235.3
"2016-01-06 01:49:00",1260149,1.277,260.6,10.27,1.28,8.81,101.2562,2.505,3.665,35.97,0,109.7,13.39,3.27,222.6